Tracking 18980 objects as of 19-Feb-2018
HD Live streaming from Space Station
objects crossing your sky now

COSMOS 1959

Track COSMOS 1959 now!
10-day predictions
COSMOS 1959 is classified as:


NORAD ID: 19324
Int'l Code: 1988-062A
Perigee: 960.2 km
Apogee: 1,009.7 km
Inclination: 82.9 °
Period: 104.6 minutes
Semi major axis: 7355 km
RCS: 2.5206 m2 (large)
Launch date: July 18, 1988
Source: Commonwealth of Independent States (former USSR) (CIS)
Launch site: PLESETSK MISSILE AND SPACE COMPLEX (PKMTR)
aabbcc
Your satellite tracking list
Your tracking list is empty




NASA's NSSDC Master Catalog

Two Line Element Set (TLE):
1 19324U 88062A   18049.60370683 +.00000020 +00000-0 +54635-5 0  9998
2 19324 082.9491 217.3157 0033633 342.5650 086.7718 13.76078413485502
Source of the keplerian elements: AFSPC